Volver al catálogo

STARLINK-32862

ActivoComunicacionesVLEO
NORAD 62864·PAYLOAD·🇺🇸 United States

Lanzado Feb 1, 2025 desde Vandenberg Space Force Base

Loading…

Próximos Pases (próximas 24 horas)

TLE

ActualizadoSource: CelesTrak SupGP

Época: Sep 14, 2026, 22:22 UTC

1 62864C 25022L   26257.93243056  .00008519  00000+0  25177-3 0  2575
2 62864  53.1596 327.6355 0001305  84.6154 357.0335 15.34377111    15

Sigue STARLINK-32862 en tiempo real con AllMySat

Download on the App Store